[[{"header":{"parameterUnit":"m.s-1","parameterCategory":1,"la1":30.2991,"la2":30.254,"lo1":-89.0895,"lo2":-89.0444,"dy":0.0017,"dx":0.0017,"nx":28,"ny":28,"refTime":"2025-12-20T09:00:00:Z","depth":0,"parameterNumber":2,"parameterNumberName":"U-component_of_WINDS"},"data":[0,0,0,0,0,0,0,0,0,0,0,0,0,0,0,0,0,0,0,0,0,0,0,0,0,0,0,0,0,0,0,0,0,0,0,0,0,0,0,0,0,0,0,0,0,0,0,0,0,0,0,0,0,0,0,0,0,0,-2.0396,-2.0395,0,-2.0299,-2.0297,-2.0296,-2.0211,-2.021,-2.0209,-2.0208,-2.0106,-2.0104,-2.0102,0,0,0,0,0,0,0,0,0,0,0,0,0,-2.0506,-2.0504,-2.0396,-2.0395,-2.0394,-2.0299,-2.0297,-2.0296,-2.0211,-2.021,-2.0209,-2.0208,-2.0106,-2.0104,-2.0102,0,0,0,0,0,0,0,0,0,0,0,0,0,-2.0438,-2.0504,-2.0396,-2.034,-2.0334,-2.0299,-2.0297,-2.0296,-2.0211,-2.021,-2.0208,-2.0207,-2.0107,-2.0105,-2.0102,-2.0114,0,0,-2.0094,-2.0092,0,0,0,0,0,0,0,0,-2.0442,-2.0434,-2.0349,-2.0344,-2.0337,-2.0265,-2.0298,-2.0235,-2.0212,-2.0258,-2.0208,-2.0206,-2.016,-2.0153,-2.0138,-2.011,-2.0105,-2.0093,-2.0092,-2.0091,-2.009,0,0,0,0,0,0,0,-2.0447,-2.0438,-2.0357,-2.0348,-2.0341,-2.0318,-2.0307,-2.0286,-2.0218,-2.0254,-2.0247,-2.0237,-2.0156,-2.0141,-2.0135,-2.0104,-2.0093,-2.0091,-2.0089,-2.0088,-2.0078,-2.008,0,0,0,0,0,0,-2.0461,-2.0442,-2.0361,-2.0355,-2.0387,-2.0318,-2.0305,-2.029,-2.0218,-2.0206,-2.0238,-2.0233,-2.0146,-2.0138,-2.0131,-2.0139,-2.0091,-2.0088,-2.0086,-2.0077,-2.0079,-2.008,0,0,0,0,0,0,-2.0463,-2.0454,-2.0365,-2.0397,-2.0384,-2.0317,-2.0301,-2.0289,-2.0273,-2.0207,-2.0194,-2.0235,-2.0144,-2.0135,-2.0119,-2.0134,-2.0087,-2.0084,-2.0076,-2.0078,-2.008,-2.0157,0,0,0,0,0,0,-2.0467,-2.0456,-2.0461,-2.0398,-2.0382,-2.0355,-2.0302,-2.0288,-2.0269,-2.0261,-2.02,-2.0188,-2.0142,-2.0123,-2.0116,-2.013,-2.0082,-2.0074,-2.0076,-2.0079,-2.0153,-2.0161,-2.0169,0,0,0,0,0,-2.0471,-2.0486,-2.0461,-2.0452,-2.0387,-2.0357,-2.0348,-2.0295,-2.027,-2.0274,-2.0231,-2.019,-2.0134,-2.0122,-2.0113,-2.0127,-2.0073,-2.0076,-2.0079,-2.0149,-2.016,-2.0169,0,0,0,0,0,0,-2.0553,-2.0477,-2.0449,-2.0444,-2.0407,-2.0342,-2.0345,-2.0308,-2.0277,-2.0272,-2.0207,-2.0194,-2.0185,-2.0154,-2.0142,-2.0134,-2.0098,-2.0099,-2.0154,-2.0164,-2.0172,-2.0179,-2.008,0,0,0,0,0,-2.057,-2.0553,-2.0487,-2.0489,-2.0472,-2.0412,-2.0397,-2.036,-2.0319,-2.0303,-2.0259,-2.022,-2.0193,-2.0177,-2.0149,-2.0148,-2.0132,-2.0152,-2.0161,-2.0168,-2.0169,-2.0164,-2.0172,-2.009,-2.009,-2.009,0,0,-2.0606,-2.0562,-2.0555,-2.0505,-2.0472,-2.0454,-2.04,-2.0383,-2.0369,-2.03,-2.0282,-2.0248,-2.0201,-2.0192,-2.0186,-2.0166,-2.0188,-2.0171,-2.0178,-2.0175,-2.0168,-2.0176,-2.0183,-2.0092,-2.0092,-2.0092,0,0,-2.0662,-2.0628,-2.0625,-2.0593,-2.0544,-2.0504,-2.0504,-2.0444,-2.0419,-2.04,-2.0347,-2.0329,-2.0285,-2.0252,-2.023,-2.0272,-2.0233,-2.0265,-2.0307,-2.0303,-2.0309,-2.0314,-2.0328,-2.0334,-2.0267,-2.0267,-2.0267,0,-2.0712,-2.0684,-2.0628,-2.0614,-2.0593,-2.053,-2.0526,-2.0497,-2.0442,-2.0428,-2.0407,-2.0349,-2.0312,-2.0294,-2.0304,-2.0289,-2.0285,-2.0271,-2.0313,-2.0318,-2.0322,-2.0334,-2.0339,-2.0271,-2.0271,-2.027,-2.027,0,-2.0747,-2.0728,-2.0731,-2.068,-2.0658,-2.065,-2.0592,-2.0577,-2.0541,-2.0503,-2.0483,-2.0437,-2.0398,-2.0391,-2.0356,-2.0367,-2.0356,-2.0325,-2.0287,-2.0335,-2.0345,-2.0349,-2.0277,-2.0276,-2.0274,-2.0273,0,0,-2.0851,-2.0768,-2.077,-2.0745,-2.0686,-2.067,-2.0658,-2.0619,-2.0607,-2.0571,-2.0557,-2.0521,-2.0491,-2.0466,-2.0427,-2.0424,-2.0458,-2.0392,-2.039,-2.0404,-2.0465,-2.0488,-2.0494,-2.0432,-2.0432,-2.0433,-2.0468,0,-2.0896,-2.0871,-2.082,-2.0811,-2.0791,-2.0731,-2.072,-2.0682,-2.0646,-2.0623,-2.0582,-2.0557,-2.052,-2.0504,-2.0499,-2.0455,-2.0469,-2.0452,-2.0417,-2.0416,-2.043,-2.05,-2.0524,-2.056,-2.0472,-2.0473,-2.0473,0,-2.0945,-2.0912,-2.0901,-2.0842,-2.0832,-2.0823,-2.0783,-2.0763,-2.0718,-2.0691,-2.0663,-2.0619,-2.0601,-2.0568,-2.0541,-2.0531,-2.0513,-2.049,-2.049,-2.0483,-2.0447,-2.0494,-2.057,-2.0575,-2.0479,-2.0479,-2.0478,0,-2.102,-2.0973,-2.096,-2.0941,-2.0872,-2.0867,-2.0837,-2.0791,-2.0771,-2.0736,-2.0721,-2.0685,-2.0665,-2.0636,-2.0584,-2.0564,-2.0562,-2.0524,-2.0538,-2.0539,-2.0539,-2.054,-2.0613,-2.0531,-2.0531,-2.0531,-2.0531,0,-2.1075,-2.107,-2.0993,-2.0985,-2.0976,-2.0918,-2.0911,-2.0876,-2.0835,-2.0818,-2.0763,-2.0748,-2.068,-2.0656,-2.0615,-2.0598,-2.059,-2.0567,-2.0555,-2.0571,-2.0573,-2.0557,-2.0553,-2.0532,-2.0532,-2.0532,-2.0531,0,-2.1157,-2.1106,-2.1087,-2.1023,-2.1007,-2.1004,-2.0948,-2.0937,-2.0897,-2.0876,-2.0867,-2.0805,-2.0774,-2.0719,-2.0672,-2.0644,-2.0635,-2.0617,-2.0651,-2.0643,-2.066,-2.0658,-2.0724,-2.0728,-2.0646,-2.0647,-2.0647,0,-2.1195,-2.119,-2.1125,-2.111,-2.1083,-2.106,-2.1039,-2.098,-2.096,-2.0908,-2.0902,-2.0867,-2.0836,-2.079,-2.0739,-2.0702,-2.0682,-2.0707,-2.0676,-2.0691,-2.068,-2.0681,-2.0679,-2.0714,-2.0715,-2.0716,-2.0717,0,-2.1267,-2.1241,-2.1214,-2.1177,-2.1153,-2.1121,-2.1086,-2.1077,-2.101,-2.099,-2.0958,-2.0934,-2.0886,-2.0851,-2.0808,-2.0776,-2.0735,-2.0728,-2.0728,-2.0743,-2.0762,-2.0751,-2.0668,-2.0726,-2.0725,-2.0725,-2.0724,-2.0724,-2.1327,-2.1318,-2.1272,-2.1242,-2.121,-2.1178,-2.1164,-2.1122,-2.1095,-2.1052,-2.1019,-2.0989,-2.0942,-2.0879,-2.0849,-2.0824,-2.0805,-2.0807,-2.0807,-2.0808,-2.0813,-2.0768,-2.0816,-2.0816,-2.0815,-2.0815,-2.0815,0,-2.1394,-2.1361,-2.1335,-2.1287,-2.1264,-2.1228,-2.1187,-2.1169,-2.1144,-2.1104,-2.1074,-2.1037,-2.1002,-2.0949,-2.091,-2.09,-2.088,-2.0892,-2.0891,-2.0884,-2.0833,-2.0836,-2.0908,-2.0908,-2.0908,-2.0908,-2.0908,-2.0908,-2.1427,-2.141,-2.1379,-2.1346,-2.1312,-2.1283,-2.1262,-2.1232,-2.1199,-2.116,-2.1131,-2.1097,-2.1051,-2.1008,-2.0974,-2.0959,-2.0947,-2.0964,-2.0943,-2.0896,-2.0888,-2.0879,-2.0881,-2.0962,-2.0962,-2.0995,-2.0995,-2.0996]},{"header":{"parameterUnit":"m.s-1","parameterCategory":1,"la1":30.2991,"la2":30.254,"lo1":-89.0895,"lo2":-89.0444,"dy":0.0017,"dx":0.0017,"nx":28,"ny":28,"refTime":"2025-12-20T09:00:00:Z","depth":0,"parameterNumber":3,"parameterNumberName":"V-component_of_WINDS"},"data":[0,0,0,0,0,0,0,0,0,0,0,0,0,0,0,0,0,0,0,0,0,0,0,0,0,0,0,0,0,0,0,0,0,0,0,0,0,0,0,0,0,0,0,0,0,0,0,0,0,0,0,0,0,0,0,0,0,0,2.1754,2.1756,0,2.1892,2.1894,2.1895,2.1941,2.194,2.1939,2.1939,2.2081,2.2085,2.209,0,0,0,0,0,0,0,0,0,0,0,0,0,2.1532,2.1536,2.1754,2.1756,2.1758,2.1892,2.1894,2.1896,2.1941,2.194,2.1939,2.1938,2.208,2.2085,2.209,0,0,0,0,0,0,0,0,0,0,0,0,0,2.1645,2.1537,2.1754,2.1796,2.1801,2.1892,2.1894,2.1896,2.1941,2.194,2.1939,2.1938,2.2078,2.2084,2.2091,2.2149,0,0,2.2111,2.2114,0,0,0,0,0,0,0,0,2.1639,2.1653,2.1788,2.1793,2.1799,2.1898,2.1868,2.1981,2.1941,2.1888,2.1939,2.1938,2.2021,2.2032,2.206,2.2156,2.2162,2.2111,2.2115,2.2118,2.212,0,0,0,0,0,0,0,2.1631,2.1648,2.1809,2.179,2.1797,2.1809,2.1824,2.189,2.1958,2.1892,2.1896,2.1912,2.2024,2.2054,2.2064,2.2164,2.2111,2.2117,2.2121,2.2123,2.2319,2.232,0,0,0,0,0,0,2.1616,2.1641,2.1804,2.1813,2.1715,2.1814,2.1831,2.1867,2.1957,2.197,2.1912,2.1913,2.2043,2.2056,2.2069,2.2146,2.2118,2.2124,2.2128,2.2317,2.2319,2.232,0,0,0,0,0,0,2.1611,2.163,2.1799,2.1728,2.175,2.1819,2.186,2.1871,2.1901,2.1972,2.1985,2.193,2.2043,2.206,2.213,2.2151,2.2127,2.2133,2.2316,2.2318,2.232,2.2298,0,0,0,0,0,0,2.1604,2.1628,2.165,2.1728,2.1754,2.1856,2.1861,2.1874,2.1912,2.1914,2.1992,2.2004,2.2043,2.212,2.2136,2.216,2.2138,2.2314,2.2317,2.2319,2.2298,2.2299,2.2301,0,0,0,0,0,2.1596,2.1638,2.1651,2.167,2.1783,2.1857,2.1872,2.1916,2.1913,2.1937,2.1983,2.2002,2.2146,2.2127,2.2145,2.2171,2.2313,2.2316,2.2319,2.2297,2.2299,2.2301,0,0,0,0,0,0,2.156,2.1649,2.1664,2.1732,2.1787,2.1865,2.1896,2.1917,2.1974,2.1974,2.2026,2.2043,2.211,2.2147,2.2124,2.2235,2.2231,2.2237,2.2207,2.221,2.2212,2.2202,2.2144,0,0,0,0,0,2.156,2.1612,2.1687,2.1741,2.1767,2.1827,2.1861,2.189,2.1949,2.1972,2.2024,2.2081,2.214,2.2177,2.2234,2.2303,2.2322,2.2331,2.2332,2.2333,2.2339,2.2381,2.2386,2.233,2.233,2.233,0,0,2.1561,2.1616,2.1645,2.1735,2.1781,2.1835,2.1846,2.1902,2.1944,2.1981,2.2051,2.2091,2.2158,2.2228,2.2262,2.2262,2.2359,2.2337,2.2337,2.2343,2.2384,2.239,2.2395,2.2332,2.2331,2.2331,0,0,2.159,2.1636,2.1686,2.1733,2.1802,2.1842,2.1854,2.1929,2.1958,2.2028,2.2058,2.2109,2.2207,2.2255,2.2292,2.2342,2.2362,2.2359,2.2369,2.2409,2.2413,2.2418,2.2438,2.2444,2.2364,2.2364,2.2364,0,2.1582,2.1664,2.171,2.1766,2.1805,2.1842,2.1895,2.1937,2.2022,2.2049,2.2048,2.2174,2.2222,2.2305,2.2318,2.2346,2.2363,2.2351,2.2409,2.2414,2.2418,2.2438,2.2445,2.2364,2.2364,2.2364,2.2364,0,2.1653,2.1709,2.1742,2.1824,2.1867,2.192,2.1976,2.2014,2.204,2.208,2.2153,2.2212,2.2283,2.2305,2.233,2.2393,2.2391,2.2399,2.2396,2.2422,2.2442,2.245,2.2363,2.2363,2.2363,2.2363,0,0,2.1662,2.177,2.1781,2.182,2.19,2.1946,2.2002,2.2072,2.2105,2.2163,2.2213,2.2297,2.2305,2.2347,2.2379,2.2414,2.2453,2.2418,2.242,2.2424,2.2528,2.2523,2.2531,2.2466,2.2468,2.2469,2.2523,0,2.1704,2.1806,2.1849,2.1932,2.1986,2.2023,2.2073,2.2128,2.2168,2.2221,2.2265,2.2324,2.2329,2.2356,2.2392,2.244,2.2475,2.2437,2.2515,2.2517,2.2499,2.2541,2.2535,2.2583,2.2531,2.2532,2.2533,0,2.1765,2.1824,2.1912,2.1988,2.2013,2.2056,2.2125,2.2175,2.2239,2.2266,2.2314,2.2344,2.2407,2.2399,2.2487,2.2461,2.2495,2.2524,2.2527,2.2537,2.2528,2.2554,2.26,2.2607,2.2545,2.2544,2.2544,0,2.1766,2.1867,2.1934,2.1965,2.2055,2.2086,2.2125,2.2188,2.2228,2.2289,2.2316,2.2383,2.242,2.2471,2.252,2.2509,2.2604,2.26,2.263,2.2628,2.2648,2.2647,2.2702,2.2668,2.2668,2.2668,2.2668,0,2.1808,2.1861,2.1936,2.1977,2.2038,2.2088,2.2148,2.2189,2.2246,2.2297,2.2333,2.238,2.244,2.2495,2.2533,2.2602,2.2618,2.2642,2.2652,2.264,2.2637,2.2664,2.2663,2.267,2.2669,2.2669,2.2669,0,2.182,2.1871,2.1947,2.2026,2.2048,2.209,2.2158,2.2201,2.2242,2.2307,2.2325,2.2391,2.2458,2.2511,2.2598,2.2624,2.2697,2.2707,2.2675,2.2681,2.2708,2.2705,2.2784,2.2798,2.2752,2.2753,2.2753,0,2.1844,2.1886,2.197,2.2007,2.2046,2.2104,2.2146,2.2198,2.224,2.2318,2.2351,2.2421,2.248,2.2586,2.2642,2.271,2.2723,2.2746,2.2733,2.2721,2.2726,2.2723,2.2729,2.2748,2.2748,2.2748,2.2748,0,2.1882,2.1906,2.1964,2.2033,2.2081,2.2137,2.2194,2.2222,2.2285,2.2331,2.24,2.2446,2.2536,2.2606,2.268,2.2722,2.2746,2.2752,2.2763,2.2751,2.2732,2.2745,2.2681,2.275,2.275,2.2749,2.2749,2.2749,2.1903,2.1942,2.2009,2.2073,2.2122,2.2175,2.2219,2.2267,2.2325,2.2403,2.243,2.2502,2.2568,2.2671,2.2713,2.2771,2.2773,2.2787,2.2792,2.2795,2.2795,2.2722,2.2784,2.2784,2.2784,2.2785,2.2785,0,2.1944,2.1989,2.2048,2.2127,2.2179,2.2197,2.2261,2.2303,2.2366,2.2426,2.2483,2.2565,2.2633,2.2695,2.2767,2.2802,2.2815,2.2819,2.2818,2.2828,2.2788,2.2773,2.2807,2.2807,2.2807,2.2807,2.2807,2.2807,2.1972,2.2042,2.2074,2.2169,2.2213,2.2284,2.232,2.237,2.2418,2.2507,2.2564,2.2604,2.2666,2.2743,2.2807,2.2824,2.2849,2.2851,2.2871,2.2833,2.283,2.2827,2.2813,2.2855,2.2855,2.2905,2.2906,2.2906]}]]